Regional Weather Roundup
Issued by NWS

Home | Current Version | Previous Version | Graphics & Text | Print | Product List | Glossary On
Versions: 1 2 3 4 5 6 7 8 9 10 11 12 13 14 15 16 17 18 19 20 21 22 23 24 25 26 27 28 29 30 31 32 33 34 35 36 37 38 39 40 41 42 43 44 45 46 47 48 49 50
000
ASUS43 KLOT 310910
RWRIL

ILLINOIS REGIONAL WEATHER ROUNDUP
NATIONAL WEATHER SERVICE CHICAGO/ROMEOVILLE IL
400 AM CDT FRI OCT 31 2014

NOTE: "FAIR" INDICATES FEW OR NO CLOUDS BELOW 12,000 FEET WITH NO
SIGNIFICANT WEATHER AND/OR OBSTRUCTIONS TO VISIBILITY.

* THESE STATIONS ARE NOT UNDER NWS QUALITY CONTROL. THEY ALSO MAY NOT
  REPORT WEATHER SUCH AS PRECIPITATION OR FOG.

ILZ001-002-007-009-015-016-024-311000-
NORTHWEST ILLINOIS

CITY           SKY/WX    TMP DP  RH WIND       PRES   REMARKS
MOLINE         PTCLDY    41  21  44 NW18G35   30.16R
STERLING*      CLOUDY    45  27  49 N22G32    30.11R
SAVANNA*       CLOUDY    41  24  50 N23G30    30.16R
$$

ILZ003-004-008-010-011-017-018-311000-
NORTH CENTRAL ILLINOIS

CITY           SKY/WX    TMP DP  RH WIND       PRES   REMARKS
ROCKFORD       LGT RAIN  40  26  57 NW23G40   30.11R
FREEPORT*      CLOUDY    37  23  56 N25G39    30.14R WCI  26
ROCHELLE*      CLOUDY    42  30  63 NW13      30.08S
DE KALB*       CLOUDY    40  31  69 NW15G21   30.06S
PERU*          CLOUDY    45  32  60 NW16G24   30.09S
$$

ILZ005-006-012>014-019>023-311000-
NORTHEAST ILLINOIS

CITY           SKY/WX    TMP DP  RH WIND       PRES   REMARKS
CHICAGO-OHARE  LGT RAIN  43  36  76 NW17      30.03S
CHICAGO-MIDWAY LGT RAIN  45  34  65 NW20G26   30.03R
AURORA         CLOUDY    43  34  70 NW12      30.05S
LANSING*       LGT RAIN  45  39  80 NW9       30.01S
JOLIET*        CLOUDY    44  33  66 NW17G23   30.05R
WAUKEGAN       CLOUDY    41  30  65 NW10G26   30.02S
DUPAGE AIRPORT CLOUDY    43  32  65 NW17      30.04S
KANKAKEE*      LGT RAIN  44  40  86 W7        30.03S
WHEELING       LGT RAIN  44  34  67 NW16G23   30.05S
MORRIS*        CLOUDY    44  36  73 N9G17     30.05R
ROMEOVILLE*    LGT RAIN  42  33  70 N20G28    30.04R
NORTHERLY ISL    N/A     45  34  65 NW15        N/A
$$

LMZ740>746-311000-
SOUTHERN LAKE MICHIGAN

STATION/POSITION SKY/WX   TEMP    WIND        PRES    VSBY  WAVE
                          AIR SEA DIR/SP/G                  HT/PER
                          (F)     (DEG/KT/KT) (MB)    (MI)  (FT/S)
SOUTHERN BUOY              46 53  310/ 23/ 29 1015.0F         5/ 5
WAUKEGAN HARBOR            43     320/ 11/ 17   N/A
HARRISON CRIB              46     320/ 21/ 28   N/A
BURNHAM HARBOR             45     320/ 11/ 20   N/A
CALUMET HARBOR             45     300/ 12/ 19 1015.3R
MICHIGAN CITY              47     300/ 24/ 28   N/A
$$

ILZ025>027-034>036-040-047-049-050-058-095>099-311000-
WEST-CENTRAL ILLINOIS

CITY           SKY/WX    TMP DP  RH WIND       PRES   REMARKS
QUINCY         CLOUDY    47  39  74 N15       30.15R
GALESBURG*     CLOUDY    43  30  61 NW24G31   30.14R
MACOMB*        CLOUDY    46  38  75 NW20      30.16S
JACKSONVILLE*  CLOUDY    47  43  87 NW12      30.12R
PITTSFIELD*    CLOUDY    47  41  79 NW13      30.14R
$$

ILZ028>032-037-038-041>044-048-051>054-059>061-311000-
CENTRAL ILLINOIS

CITY           SKY/WX    TMP DP  RH WIND       PRES   REMARKS
PONTIAC        CLOUDY    46  42  85 NW10      30.06S
BLOOMINGTON    CLOUDY    46  41  83 NW13      30.07S
DECATUR        CLOUDY    45  41  86 NW7       30.07S
PEORIA         CLOUDY    47  40  76 NW9       30.10R
LACON*         CLOUDY    42  35  73 N14G25    30.10R
LINCOLN*       CLOUDY    46  43  90 NW5       30.07S
SPRINGFIELD    CLOUDY    47  42  83 NW6       30.10R
TAYLORVILLE    CLOUDY    43  41  93 NW5       30.08S
$$

ILZ033-039-045-046-055>057-062-063-311000-
EAST-CENTRAL ILLINOIS

CITY           SKY/WX    TMP DP  RH WIND       PRES   REMARKS
CHAMPAIGN      CLOUDY    44  41  89 W6        30.04F
DANVILLE*      CLOUDY    42  40  90 W6        30.00F
RANTOUL*       CLOUDY    46  42  86 NW7       30.03F
MATTOON        PTCLDY    41  40  96 NW6       30.05R
PARIS*         CLOUDY    41  41  99 W3        30.04F
$$

ILZ079-100>102-311000-
SOUTHWEST ILLINOIS

CITY           SKY/WX    TMP DP  RH WIND       PRES   REMARKS
ALTON          CLOUDY    46  43  90 CALM      30.09R
BELLEVILLE     PTCLDY    46  46  99 N7        30.07R
CAHOKIA*       MOCLDY    48  45  89 N10       30.09R
SPARTA*        CLOUDY    47  46  94 NW9       30.06R
$$

ILZ064>066-069>071-074>076-080>082-084>086-088>090-092>094-311000-
SOUTH-CENTRAL ILLINOIS

CITY           SKY/WX    TMP DP  RH WIND       PRES   REMARKS
CARBONDALE     MOCLDY    47  45  93 CALM      30.03R FOG
CAIRO*         MOCLDY    52  49  89 NW3       30.02S
EFFINGHAM*     MOCLDY    45  42  88 NW5       30.06R
MARION         CLOUDY    50  48  93 CALM      30.03R
MT. VERNON     CLOUDY    46  43  87 N3        30.04R
CENTRALIA*     CLOUDY    47  44  89 N6        30.05R
SALEM*         CLOUDY    47  46  96 N5        30.06R
METROPOLIS*    CLOUDY    51  51 100 N3        30.00F
$$

ILZ067-068-072-073-078-083-087-091-311000-
SOUTHEAST ILLINOIS

CITY           SKY/WX    TMP DP  RH WIND       PRES   REMARKS
LAWRENCEVILLE  CLOUDY    47  46  97 N3        30.03F FOG
FLORA*         CLEAR     46  45  95 NW3       30.04S
FAIRFIELD*     CLOUDY    47  46  93 N3        30.02S
HARRISBURG*    CLOUDY    50  47  91 CALM      30.03S
ROBINSON*      PTCLDY    46  45  98 NW5       30.05S FOG
CARMI*         CLOUDY    50  48  95 E6        30.01F
$$

ABBREVIATIONS USED IN REMARKS
   TC - TEMPERATURE IN CELSIUS
  WCI - WIND CHILL INDEX
   HX - HEAT INDEX
  VSB - VISIBILITY
$$




USA.gov is the U.S. government's official web portal to all federal, state and local government web resources and services.